Faith, SD

7:39 PM MST on February 23, 2017 (GMT -0700)
Faith

Weather History for KD07 - July, 2013

Change the Weather History Date:

Monday, July 22, 2013

  Actual Average Record
Temperature  
Mean Temperature 73 °F 73 °F  
Max Temperature 86 °F 87 °F 105 °F (2007)
Min Temperature 59 °F 60 °F 54 °F (2000)
Degree Days  
Heating Degree Days 0 0  
Month to date heating degree days 3 5  
Since 1 June heating degree days 76 95  
Since 1 July heating degree days 3 5  
Cooling Degree Days 8 9  
Month to date cooling degree days 229 167  
Year to date cooling degree days 324 267  
Since 1 June cooling degree days 311 255  
Growing Degree Days 22 (Base 50)    
Moisture  
Dew Point 54 °F    
Average Humidity 63    
Maximum Humidity 97    
Minimum Humidity 29    
Precipitation  
Precipitation 0.04 in 0.07 in 0.16 in (2014)
Month to date precipitation 0.78 2.27  
Year to date precipitation 9.68 11.66  
Sea Level Pressure  
Sea Level Pressure 29.86 in    
Wind  
Wind Speed 9 mph (NNE)    
Max Wind Speed 18 mph    
Max Gust Speed 26 mph    
T = Trace of Precipitation, MM = Missing Value Source: NWS Daily Summary

Daily Weather History Graph

Daily Weather History Graph

Search for Another Location

Airport or City:

Trip Planner

Search our weather history database for the weather conditions in past years. The results will help you decide how hot, cold, wet, or windy it might be!

Date:

Astronomy

Jul. 22, 2013 Rise Set
Actual Time 5:22 AM MDT 8:25 PM MDT
Civil Twilight 4:47 AM MDT 9:00 PM MDT
Nautical Twilight 4:02 AM MDT 9:45 PM MDT
Astronomical Twilight 3:08 AM MDT 10:39 PM MDT
Moon 8:08 PM MDT (7/22) 5:24 AM MDT (7/22)
Length of Visible Light 16h 13m
Length of Day
15h 03m
Full, 100% of the Moon is Illuminated
Jul 22
Full
Jul 22
Full
Jul 29
Last Quarter
Aug 6
New
Aug 14
First Quarter

Hourly Weather History & Observations

Time (MDT) Temp. Dew Point Humidity Pressure Visibility Wind Dir Wind Speed Gust Speed Precip Events Conditions
12:56 AM 68.0 °F 63.0 °F 84% 29.78 in - North 10.4 mph - N/A   Unknown
1:56 AM 66.0 °F 59.0 °F 78% 29.80 in - North 8.1 mph - N/A   Unknown
2:56 AM 64.0 °F 57.0 °F 78% 29.81 in - North 10.4 mph - N/A   Unknown
3:56 AM 61.0 °F 59.0 °F 93% 29.81 in - NW 8.1 mph - N/A   Unknown
4:56 AM 61.0 °F 57.9 °F 90% 29.82 in - NW 10.4 mph - N/A   Unknown
5:56 AM 60.1 °F 57.0 °F 90% 29.84 in - NNW 12.7 mph - N/A   Unknown
6:56 AM 64.0 °F 57.0 °F 78% 29.85 in - NNW 11.5 mph - N/A   Unknown
7:56 AM 68.0 °F 55.9 °F 65% 29.87 in - North 12.7 mph - N/A   Unknown
8:56 AM 70.0 °F 55.0 °F 59% 29.88 in - NNE 11.5 mph - N/A   Unknown
9:56 AM 73.0 °F 53.1 °F 49% 29.88 in - NNE 15.0 mph 20.7 mph N/A   Unknown
10:56 AM 75.9 °F 53.1 °F 45% 29.89 in - North 5.8 mph - N/A   Unknown
11:56 AM 78.1 °F 52.0 °F 40% 29.89 in - Variable 3.5 mph - N/A   Unknown
12:56 PM 82.0 °F 52.0 °F 35% 29.89 in - Variable 3.5 mph - N/A   Unknown
1:56 PM 82.0 °F 50.0 °F 33% 29.89 in - Variable 3.5 mph - N/A   Unknown
2:56 PM 84.9 °F 50.0 °F 30% 29.88 in - Variable 6.9 mph - N/A   Unknown
3:56 PM 84.9 °F 48.9 °F 29% 29.87 in - Variable 3.5 mph - N/A   Unknown
4:56 PM 84.9 °F 48.9 °F 29% 29.86 in - East 9.2 mph - N/A   Unknown
5:56 PM 84.0 °F 48.9 °F 29% 29.85 in - East 10.4 mph - N/A   Unknown
6:56 PM 80.1 °F 50.0 °F 35% 29.86 in - ENE 10.4 mph - N/A   Unknown
7:56 PM 77.0 °F 48.9 °F 37% 29.89 in - East 4.6 mph - N/A   Unknown
8:56 PM 73.0 °F 50.0 °F 44% 29.86 in - ENE 12.7 mph - N/A   Unknown
9:56 PM 69.1 °F 52.0 °F 54% 29.88 in - East 13.8 mph - N/A   Unknown
10:56 PM 66.9 °F 53.1 °F 61% 29.88 in - East 15.0 mph - N/A   Unknown
11:56 PM 66.0 °F 55.0 °F 68% 30.01 in - North 12.7 mph - N/A   Unknown